West Palm Beach, FL

5:50 AM EDT on July 27, 2016 (GMT -0400)
Palm Beach International

Weather History for KPBI - September, 2013

Change the Weather History Date:

Monday, September 30, 2013

  Actual Average Record
Temperature  
Mean Temperature 81 °F 81 °F  
Max Temperature 88 °F 87 °F 95 °F (1980)
Min Temperature 73 °F 75 °F 63 °F (1919)
Degree Days  
Heating Degree Days 0 0  
Month to date heating degree days 0 0  
Since 1 July heating degree days 0 0  
Cooling Degree Days 16 16  
Month to date cooling degree days 502 502  
Year to date cooling degree days 3373 3208  
Growing Degree Days 30 (Base 50)    
Moisture  
Dew Point 68 °F    
Average Humidity 69    
Maximum Humidity 87    
Minimum Humidity 51    
Precipitation  
Precipitation 0.00 in 0.25 in 3.87 in (1909)
Month to date precipitation 9.10 8.35  
Year to date precipitation 56.72 49.07  
Snow  
Snow 0.00 in - - ()
Month to date snowfall 0.0  
Since 1 July snowfall 0.0  
Since 1 September snowfall 0.0  
Snow Depth 0.00 in    
Sea Level Pressure  
Sea Level Pressure 29.95 in    
Wind  
Wind Speed 6 mph (East)    
Max Wind Speed 13 mph    
Max Gust Speed 16 mph    
Visibility 10 miles    
Events      
T = Trace of Precipitation, MM = Missing Value Source: NWS Daily Summary

Daily Weather History Graph

Daily Weather History Graph

Search for Another Location

Airport or City:

Trip Planner

Search our weather history database for the weather conditions in past years. The results will help you decide how hot, cold, wet, or windy it might be!

Date:

Astronomy

Sep. 30, 2013 Rise Set
Actual Time 7:12 AM EDT 7:07 PM EDT
Civil Twilight 6:49 AM EDT 7:30 PM EDT
Nautical Twilight 6:22 AM EDT 7:57 PM EDT
Astronomical Twilight 5:55 AM EDT 8:24 PM EDT
Moon 3:09 AM EDT (9/30) 4:19 PM EDT (9/30)
Length of Visible Light 12h 41m
Length of Day
11h 55m
Waning Crescent, 19% of the Moon is Illuminated
Sep 30
Waning Crescent
Oct 4
New
Oct 11
First Quarter
Oct 18
Full
Oct 26
Last Quarter

Hourly Weather History & Observations

Time (EDT) Temp. Heat Index Dew Point Humidity Pressure Visibility Wind Dir Wind Speed Gust Speed Precip Events Conditions
12:53 AM 79.0 °F - 68.0 °F 69% 29.94 in 10.0 mi ESE 3.5 mph - N/A   Partly Cloudy
1:53 AM 80.1 °F 82.7 °F 68.0 °F 67% 29.93 in 10.0 mi East 3.5 mph - N/A   Partly Cloudy
2:53 AM 78.1 °F - 68.0 °F 71% 29.92 in 10.0 mi ESE 3.5 mph - N/A   Scattered Clouds
3:53 AM 73.9 °F - 68.0 °F 82% 29.91 in 10.0 mi Calm Calm - N/A   Partly Cloudy
4:53 AM 73.9 °F - 68.0 °F 82% 29.91 in 10.0 mi Calm Calm - N/A   Partly Cloudy
5:53 AM 75.0 °F - 69.1 °F 82% 29.93 in 10.0 mi Calm Calm - N/A   Partly Cloudy
6:53 AM 73.9 °F - 69.1 °F 85% 29.94 in 10.0 mi Calm Calm - N/A   Mostly Cloudy
7:53 AM 75.0 °F - 70.0 °F 84% 29.96 in 10.0 mi Calm Calm - N/A   Mostly Cloudy
8:53 AM 82.9 °F 86.5 °F 69.1 °F 63% 29.96 in 10.0 mi Calm Calm - N/A   Mostly Cloudy
9:53 AM 84.0 °F 87.0 °F 68.0 °F 58% 29.97 in 10.0 mi East 6.9 mph - N/A   Mostly Cloudy
10:53 AM 86.0 °F 90.1 °F 69.1 °F 57% 29.98 in 10.0 mi ESE 8.1 mph - N/A   Scattered Clouds
11:53 AM 86.0 °F 89.4 °F 68.0 °F 55% 29.98 in 10.0 mi East 5.8 mph - N/A   Scattered Clouds
12:53 PM 87.1 °F 91.3 °F 69.1 °F 55% 29.96 in 10.0 mi East 8.1 mph - N/A   Scattered Clouds
1:53 PM 86.0 °F 90.1 °F 69.1 °F 57% 29.94 in 10.0 mi ESE 8.1 mph - N/A   Scattered Clouds
2:53 PM 87.1 °F 90.6 °F 68.0 °F 53% 29.93 in 10.0 mi East 8.1 mph - N/A   Scattered Clouds
3:53 PM 86.0 °F 88.8 °F 66.9 °F 53% 29.93 in 10.0 mi ESE 11.5 mph - N/A   Partly Cloudy
4:53 PM 86.0 °F 89.4 °F 68.0 °F 55% 29.92 in 10.0 mi East 10.4 mph - N/A   Partly Cloudy
5:53 PM 84.9 °F 87.6 °F 66.9 °F 55% 29.94 in 10.0 mi East 11.5 mph - N/A   Scattered Clouds
6:53 PM 84.0 °F 86.5 °F 66.9 °F 56% 29.94 in 10.0 mi East 10.4 mph - N/A   Scattered Clouds
7:53 PM 82.9 °F 86.5 °F 69.1 °F 63% 29.96 in 10.0 mi East 9.2 mph - N/A   Partly Cloudy
8:53 PM 82.0 °F 85.5 °F 69.1 °F 65% 29.98 in 10.0 mi East 8.1 mph - N/A   Partly Cloudy
9:53 PM 82.0 °F 84.9 °F 68.0 °F 62% 30.00 in 10.0 mi East 9.2 mph - N/A   Partly Cloudy
10:53 PM 82.0 °F 85.5 °F 69.1 °F 65% 30.01 in 10.0 mi East 9.2 mph - N/A   Partly Cloudy
11:53 PM 82.0 °F 85.5 °F 69.1 °F 65% 30.00 in 10.0 mi ESE 9.2 mph - N/A   Mostly Cloudy